CAPE
0 0 0 0 0 0 0 0 0 603 1909 2057 2090 1871 1877 1912 1993 2010 2239 1926 2036 2151 1761 1780 1714 1728 1629 1249 1342 1028 750 739
0 0 0 0 0 0 0 0 0 0 44 1255 1671 1878 2126 2117 2076 2263 2057 2249 2188 2133 1734 2239 2159 1795 1921 1723 1435 705 799 627
0 0 0 0 0 0 0 0 0 0 0 100 1159 1562 1563 1806 2054 2440 2271 2036 2153 2340 2205 1945 1856 1669 1809 1204 756 512 786 749
0 0 0 0 0 0 0 0 0 0 0 0 640 1503 1783 1953 2274 2407 2575 2072 1964 2202 2118 2046 1369 1236 1383 1045 599 384 284 224
0 0 0 1 3 0 0 0 0 0 26 128 457 1531 1744 2039 1785 1842 1950 2193 1705 1907 1973 1962 1033 834 995 927 704 465 301 192
10 8 5 1 0 1 13 0 46 310 666 865 771 1697 2126 2081 1846 1521 1443 1949 1976 1801 2029 1770 1203 1667 855 1120 922 645 420 340
1 1 1 1 0 2 7 12 36 79 1450 1747 1637 2211 2466 2319 2397 1691 1727 1800 1767 1836 1795 1736 1741 1165 472 344 820 731 498 345
10 11 8 8 3 4 10 13 11 8 3 322 1769 2289 2043 1621 1751 2098 1725 793 650 114 72 821 1686 303 275 434 928 857 656 491
11 10 10 13 10 14 5 7 10 11 11 4 0 79 789 1056 1103 1084 1127 1291 994 239 4 5 1022 1710 1329 1177 1369 875 699 751
11 15 9 7 10 13 9 14 4 10 8 3 7 4 6 204 1 1 214 9 105 281 890 1003 755 715 812 1079 1035 1012 832 653
6 10 17 12 12 9 15 4 12 13 12 11 5 5 5 2 0 0 0 1 0 0 7 44 441 885 762 681 791 762 723 819
11 15 14 14 7 13 12 15 7 6 3 18 13 4 1 0 0 0 0 0 0 0 0 7 18 76 730 520 440 464 470 514
10 21 20 12 12 17 8 13 7 11 2 11 4 5 3 4 2 0 0 0 0 0 0 0 3 85 66 540 517 351 398 391
5 6 16 13 11 11 11 11 8 10 2 0 4 4 2 4 4 2 1 0 0 0 0 0 0 2 21 58 33 317 273 346
2 5 20 8 5 12 14 9 6 10 4 4 2 1 1 3 8 4 4 0 0 0 0 0 2 0 2 9 1 0 15 214
1 3 3 0 1 2 5 6 7 7 4 1 2 2 0 2 3 2 2 2 2 1 0 0 0 0 0 2 7 8 3 2
0 1 1 0 0 0 0 5 5 5 3 1 1 1 1 2 1 0 1 1 1 3 1 3 4 3 0 0 0 5 5 4
1 1 1 1 0 0 0 2 4 6 4 2 2 3 0 0 0 1 1 2 2 2 2 3 5 7 0 0 0 2 6 6
0 1 1 2 1 1 3 2 2 4 5 6 5 2 0 0 1 1 2 2 3 4 5 4 3 4 0 0 0 1 8 9
CIN
0 0 0 0 0 0 0 0 0 -96 -44 -45 -36 -67 -79 -90 -83 -86 -56 -129 -111 -65 -75 -51 -24 -2 -1 -9 -2 -9 -25 -6
0 0 0 0 0 0 0 0 0 0 -165 -64 -43 -50 -66 -72 -78 -61 -65 -82 -100 -86 -83 -14 -4 -11 0 0 -1 -37 -3 -22
0 0 0 0 0 0 0 0 0 0 0 -97 -66 -59 -73 -61 -49 -30 -43 -75 -82 -54 -42 -23 -9 -5 0 -12 -22 -36 -7 -6
0 0 0 0 0 0 0 0 0 0 -8 0 -63 -51 -42 -40 -36 -37 -47 -86 -57 -49 -35 -13 -67 -10 0 -8 -36 -40 -43 -54
0 0 0 0 0 0 0 0 0 0 -201 -116 -70 -24 -48 -58 -71 -79 -87 -63 -87 -74 -43 -20 -122 -159 0 -1 -1 -24 -27 -48
0 0 0 0 0 0 0 0 -173 -68 -50 -49 -61 -12 -9 -7 -48 -84 -100 -55 -39 -19 -1 -20 -73 -34 -80 -1 0 -6 -15 -16
0 0 0 0 0 0 0 -36 -118 -108 -6 -1 -20 -1 0 0 0 -30 -35 -4 -3 0 0 0 -5 -88 -91 -120 -12 -1 -13 -10
0 0 0 0 0 0 0 0 0 0 0 -80 -4 0 0 -2 -1 0 0 -63 -120 -86 -70 -11 0 -61 -128 -63 -4 -7 -2 -2
0 0 0 0 0 0 0 0 0 0 0 0 0 -372 -34 -3 -1 -5 -2 -13 -61 -319 -462 -84 0 -1 -4 -1 0 -5 -16 0
0 0 0 0 0 0 0 0 0 0 0 0 0 0 -40 -132 -98 0 -141 -260 -296 -189 -45 -1 -3 -17 -4 -1 -1 0 -3 -1
0 0 0 0 0 0 0 0 0 0 0 0 0 0 0 0 0 0 0 0 0 0 -245 -167 -72 -4 0 -4 0 -1 -1 -1
0 0 0 0 0 0 0 0 0 0 0 0 0 0 0 0 0 0 0 0 0 0 0 -163 -215 -145 0 0 -1 -4 -5 -1
0 0 0 0 0 0 0 0 0 0 0 0 0 0 0 0 0 0 0 0 0 0 0 0 -10 -109 -109 0 0 -4 -11 -1
0 0 0 0 0 0 0 0 0 0 0 0 0 0 0 0 0 0 0 0 0 0 0 0 0 0 -292 -195 -242 -16 -11 -3
0 0 0 -2 -1 0 0 0 0 0 0 0 0 0 0 0 0 0 0 0 0 0 0 0 0 0 0 0 0 0 -38 -35
0 0 0 0 0 0 0 0 0 0 0 0 0 0 0 0 0 0 0 0 0 0 0 0 0 0 0 0 0 0 0 0
0 0 0 0 0 0 0 0 0 0 0 0 0 0 0 0 0 0 0 0 0 0 0 0 0 0 0 0 0 0 0 0
0 0 0 0 0 0 0 0 0 0 0 0 0 0 0 0 0 0 0 0 0 0 0 0 0 0 -2 0 0 0 0 0
0 0 0 0 0 0 0 0 0 0 0 0 0 0 0 0 0 0 0 0 0 0 0 0 0 0 0 0 0 0 0 0
Wind_Speed
17 19 17 17 17 15 12 8 10 12 12 11 10 13 13 14 14 14 17 13 17 14 10 13 10 10 9 10 12 11 10 10
18 19 20 19 17 18 17 15 12 9 11 11 12 14 14 14 14 18 19 17 20 16 11 13 12 13 13 11 9 11 10 9
22 22 22 21 20 19 19 18 18 13 10 11 12 12 13 13 13 14 18 19 19 17 14 11 11 10 11 10 10 6 7 11
25 25 25 25 25 23 21 21 20 17 16 13 12 12 11 11 10 12 16 20 18 18 19 12 11 7 7 10 11 12 8 8
23 27 30 30 28 25 24 22 21 18 17 15 19 14 15 14 14 11 13 17 19 17 19 17 14 13 11 8 9 11 9 11
23 23 24 27 28 31 22 21 19 19 18 18 16 19 14 10 9 12 14 15 16 16 18 18 13 11 12 12 11 13 11 8
23 24 24 23 23 27 27 23 11 14 18 17 18 17 17 13 14 10 11 10 10 14 15 15 15 12 15 10 11 14 13 11
19 22 24 24 23 24 23 23 17 16 12 9 11 17 20 12 12 12 9 6 5 7 4 10 11 15 10 10 16 16 15 12
15 18 18 23 21 21 23 23 21 21 15 13 9 9 1 4 3 4 7 7 7 8 7 5 16 11 13 14 12 12 13 14
16 19 19 19 19 21 20 21 21 21 19 15 11 9 8 7 7 5 4 5 7 8 6 11 12 8 8 11 11 13 13 13
16 16 19 19 18 18 19 18 19 18 20 16 14 13 10 6 6 9 7 5 10 4 3 2 5 7 7 11 9 11 12 12
15 14 15 17 18 17 18 18 20 18 15 17 14 13 15 12 10 9 8 7 6 5 4 4 3 6 9 7 10 11 13 13
15 13 15 15 16 16 17 15 18 17 13 14 14 13 12 10 9 8 8 8 8 6 6 7 6 7 6 10 10 10 13 14
14 14 11 13 13 14 15 15 13 18 16 15 14 13 12 11 9 10 9 8 9 8 8 8 7 8 8 9 8 8 9 10
16 15 13 12 12 13 16 16 11 14 18 15 13 12 12 12 10 12 9 12 10 9 7 7 7 7 9 9 8 9 11 11
16 16 15 16 16 15 16 17 18 16 15 12 14 14 15 15 14 13 13 12 10 11 10 10 10 9 5 11 12 12 11 11
17 17 16 15 17 17 17 16 17 19 19 19 18 17 16 14 14 14 13 12 12 12 11 11 10 7 11 9 11 12 12 11
16 16 15 14 14 15 16 16 16 17 18 18 17 17 16 16 16 15 14 13 12 11 12 12 12 12 10 13 12 13 13 12
14 13 14 14 13 13 14 13 13 13 15 16 17 17 16 16 15 14 14 12 12 11 12 12 12 11 12 13 15 15 13 13
Wind_Direction
343 341 345 339 340 333 323 290 268 242 237 232 234 224 227 226 217 216 195 200 200 201 204 206 205 209 201 206 209 207 201 210
348 343 340 337 334 327 324 314 297 264 243 231 226 228 222 223 222 216 208 202 203 197 199 205 197 206 208 197 198 180 207 202
346 343 340 336 329 322 318 310 305 288 259 241 235 231 235 232 225 213 211 208 203 204 200 199 196 213 215 192 188 184 197 189
342 340 337 335 327 319 310 304 296 286 276 266 240 235 239 226 221 216 212 208 209 203 205 190 174 188 212 194 196 196 197 204
344 347 344 337 330 313 304 298 291 283 273 258 251 232 227 223 219 211 213 209 208 199 201 196 166 152 231 214 202 203 203 210
357 352 351 341 347 343 312 291 282 278 271 255 249 232 235 215 206 206 210 212 210 204 203 194 191 176 179 212 218 206 208 207
359 351 351 356 354 346 340 340 339 321 283 261 244 235 224 213 209 205 198 205 198 202 201 215 207 179 188 187 215 215 211 213
357 357 351 352 360 349 345 345 352 343 355 352 281 239 225 215 209 207 183 168 145 107 25 278 241 220 191 211 202 211 210 209
2 360 356 354 349 348 348 346 352 352 354 360 12 8 117 151 131 160 184 167 155 155 168 250 270 236 215 208 213 212 210 219
5 360 0 353 348 345 346 346 352 353 357 357 11 27 46 76 78 78 64 42 83 50 142 201 225 225 233 220 213 212 209 213
1 356 353 353 348 346 340 353 352 343 359 355 358 6 27 41 52 60 62 37 50 65 139 274 298 234 224 229 231 224 221 217
347 351 348 349 352 345 344 349 351 357 351 347 358 1 11 19 24 35 38 47 42 33 350 285 289 306 271 222 228 231 221 226
347 351 348 345 348 344 344 343 353 348 359 325 9 8 13 5 14 27 24 31 27 5 355 351 318 278 290 288 236 227 227 224
349 355 349 339 348 344 341 341 348 341 344 346 8 7 10 360 359 17 14 26 26 3 1 338 323 309 295 294 305 273 239 238
348 352 350 343 350 347 340 343 355 336 345 356 1 356 359 5 345 14 356 24 19 358 345 314 313 325 317 302 335 330 325 252
347 348 348 348 348 348 348 345 343 344 339 348 357 351 1 359 2 3 5 10 1 348 339 341 340 334 345 352 337 313 303 305
345 346 347 348 351 343 344 342 345 339 345 351 353 356 356 351 359 360 360 358 355 343 341 337 334 322 5 345 335 316 295 284
342 343 343 348 346 343 343 338 340 343 343 345 348 348 351 352 354 354 353 350 345 335 338 336 328 326 341 334 333 317 297 284
342 343 337 344 343 346 335 337 341 342 342 339 341 343 348 348 346 345 345 347 338 340 328 330 326 321 327 331 330 312 301 291